Soldotna, AK

11:27 AM AKST on December 05, 2019 (GMT -0900)
Soldotna

Weather History for PASX - October, 2019

Change the Weather History Date:

Thursday, October 10, 2019

  Actual Average Record
Temperature  
Mean Temperature 41 °F -  
Max Temperature 46 °F 44 °F 60 °F (2018)
Min Temperature 37 °F 30 °F 13 °F (1961)
Degree Days  
Heating Degree Days 24    
Moisture  
Dew Point 40 °F    
Average Humidity 92    
Maximum Humidity 100    
Minimum Humidity 81    
Precipitation  
Precipitation 0.20 in - - ()
Sea Level Pressure  
Sea Level Pressure 29.77 in    
Wind  
Wind Speed 3 mph (SSW)    
Max Wind Speed 8 mph    
Max Gust Speed -    
Visibility 10 miles    
Events Rain    
Averages and records for this station are not official NWS values.
T = Trace of Precipitation, MM = Missing Value Source: NWS Daily Summary

Daily Weather History Graph

Daily Weather History Graph

Search for Another Location

Airport or City:

Astronomy

Oct. 10, 2019 Rise Set
Actual Time 8:32 AM AKDT 7:08 PM AKDT
Civil Twilight 7:49 AM AKDT 7:51 PM AKDT
Nautical Twilight 7:00 AM AKDT 8:39 PM AKDT
Astronomical Twilight 6:10 AM AKDT 9:29 PM AKDT
Moon 7:14 PM AKDT (10/10) 4:14 AM AKDT (10/10)
Length of Visible Light 12h 01m
Length of Day
10h 36m
Waxing Gibbous, 92% of the Moon is Illuminated
Oct 10
Waxing Gibbous
Oct 13
Full
Oct 21
Last Quarter
Oct 27
New
Nov 4
First Quarter

Hourly Weather History & Observations

Time (AKDT) Temp. Windchill Dew Point Humidity Pressure Visibility Wind Dir Wind Speed Gust Speed Precip Events Conditions
12:27 AM 44.6 °F - 44.6 °F 100% 29.87 in 7.0 mi Calm Calm - 0.03 in Rain Light Rain
12:56 AM 45.0 °F 43.5 °F 44.1 °F 97% 29.90 in 7.0 mi Variable 3.5 mph - 0.04 in Rain Light Rain
1:18 AM 44.6 °F 42.2 °F 44.6 °F 100% 29.86 in 9.0 mi South 4.6 mph - 0.01 in Rain Light Rain
1:41 AM 44.6 °F 40.7 °F 44.6 °F 100% 29.86 in 2.5 mi SW 6.9 mph - 0.02 in Rain Light Rain
2:18 AM 44.6 °F 41.4 °F 42.8 °F 93% 29.85 in 8.0 mi SSW 5.8 mph - 0.01 in Rain Light Rain
2:42 AM 44.6 °F 41.4 °F 42.8 °F 93% 29.84 in 7.0 mi SSW 5.8 mph - 0.06 in Rain Rain
2:56 AM 44.1 °F 39.5 °F 42.1 °F 93% 29.87 in 10.0 mi SSW 8.1 mph - 0.08 in Rain Light Rain
3:56 AM 43.0 °F 41.3 °F 42.1 °F 97% 29.86 in 10.0 mi SSE 3.5 mph - 0.05 in Rain Light Rain
4:56 AM 43.0 °F 41.3 °F 42.1 °F 97% 29.85 in 10.0 mi SSE 3.5 mph - 0.01 in Rain Light Rain
5:56 AM 42.1 °F - 41.0 °F 96% 29.84 in 10.0 mi Calm Calm - 0.00 in   Overcast
6:56 AM 41.0 °F 38.0 °F 39.9 °F 96% 29.83 in 10.0 mi South 4.6 mph - N/A   Overcast
7:56 AM 41.0 °F 36.4 °F 39.0 °F 93% 29.82 in 10.0 mi South 6.9 mph - N/A   Mostly Cloudy
8:24 AM 41.0 °F 39.0 °F 39.2 °F 93% 29.79 in 10.0 mi South 3.5 mph - N/A   Overcast
8:56 AM 41.0 °F 38.0 °F 39.0 °F 93% 29.81 in 10.0 mi SSE 4.6 mph - N/A   Overcast
9:27 AM 41.0 °F 39.0 °F 39.2 °F 93% 29.77 in 10.0 mi Variable 3.5 mph - N/A   Overcast
9:47 AM 41.0 °F 39.0 °F 39.2 °F 93% 29.77 in 10.0 mi West 3.5 mph - N/A   Overcast
9:56 AM 41.0 °F - 39.9 °F 96% 29.80 in 10.0 mi Calm Calm - N/A   Overcast
10:12 AM 41.0 °F - 39.2 °F 93% 29.78 in 10.0 mi Calm Calm - N/A   Overcast
10:27 AM 41.0 °F - 39.2 °F 93% 29.77 in 10.0 mi Calm Calm - N/A   Overcast
10:56 AM 42.1 °F 40.2 °F 39.9 °F 92% 29.80 in 10.0 mi West 3.5 mph - N/A   Overcast
11:51 AM 42.8 °F - 39.2 °F 87% 29.76 in 10.0 mi Calm Calm - N/A   Overcast
11:56 AM 42.1 °F - 39.9 °F 92% 29.80 in 10.0 mi Calm Calm - N/A   Overcast
12:17 PM 42.8 °F 41.1 °F 41.0 °F 93% 29.76 in 10.0 mi NW 3.5 mph - 0.00 in Rain Light Rain
12:56 PM 44.1 °F - 39.9 °F 85% 29.78 in 10.0 mi Calm Calm - 0.00 in   Overcast
1:09 PM 44.6 °F - 39.2 °F 81% 29.75 in 10.0 mi Calm Calm - N/A   Overcast
1:56 PM 45.0 °F - 39.9 °F 82% 29.76 in 10.0 mi Calm Calm - N/A   Overcast
2:46 PM 42.8 °F 41.1 °F 41.0 °F 93% 29.72 in 10.0 mi NNW 3.5 mph - 0.02 in   Overcast
2:56 PM 44.1 °F - 41.0 °F 89% 29.74 in 10.0 mi Calm Calm - 0.02 in   Overcast
3:08 PM 44.6 °F 43.1 °F 41.0 °F 87% 29.71 in 10.0 mi NNW 3.5 mph - N/A   Overcast
3:21 PM 44.6 °F 42.2 °F 39.2 °F 81% 29.71 in 10.0 mi NNW 4.6 mph - 0.00 in Rain Light Rain
3:27 PM 44.6 °F - 41.0 °F 87% 29.70 in 10.0 mi Calm Calm - 0.00 in Rain Light Rain
3:56 PM 45.0 °F 41.2 °F 39.9 °F 82% 29.73 in 10.0 mi North 6.9 mph - 0.00 in   Scattered Clouds
4:56 PM 44.1 °F 40.1 °F 39.9 °F 85% 29.71 in 10.0 mi Variable 6.9 mph - N/A   Scattered Clouds
5:56 PM 43.0 °F 41.3 °F 39.0 °F 86% 29.70 in 10.0 mi Variable 3.5 mph - N/A   Partly Cloudy
6:56 PM 42.1 °F - 39.0 °F 89% 29.69 in 10.0 mi Calm Calm - N/A   Overcast
7:56 PM 41.0 °F - 39.0 °F 93% 29.68 in 10.0 mi Calm Calm - N/A   Overcast
9:56 PM 39.9 °F - 37.9 °F 93% 29.65 in 10.0 mi Calm Calm - N/A   Overcast
10:56 PM 39.0 °F - 37.9 °F 96% 29.64 in 10.0 mi Calm Calm - N/A   Overcast
11:28 PM 37.4 °F - 37.4 °F 100% 29.60 in 10.0 mi Calm Calm - N/A   Overcast
11:56 PM 37.9 °F 35.5 °F 37.0 °F 97% 29.62 in 9.0 mi East 3.5 mph - N/A   Overcast